BEESAT 3

Last updated on Thu Jul 19 2018 00:21:02 GMT+0000 (Coordinated Universal Time)

1 39135U 13015F 18199.60757178 .00000636 00000-0 42183-4 0 9997 2 39135 64.8694 39.0294 0019089 237.6498 122.2780 15.16751815289026

Satellite not in orbit

BEESAT 3